Theta_e
350 352 354 355 357 358 359 358 359 361 361 362 363 363 364 364 364 364 364 363 361 361 361 361 360 358 359 359 360 360 359 358 358 357 356 355 356 357 357 357 355 353 352 351 350 350 349 349 351 352 353 355 355 354 352 353 354 353 351 350 350 348 347 350 350 350 349 349 348 346 343 344 346 347 349 350 350 349 349 347 347 349 349 349 350
351 353 354 356 355 356 358 359 359 361 362 363 363 364 366 367 366 365 365 364 363 363 363 363 363 360 359 359 358 357 356 355 354 353 352 351 351 353 354 352 353 353 352 351 351 350 350 350 350 350 351 354 356 354 351 350 351 352 350 349 349 347 346 347 348 350 350 348 348 348 347 347 346 346 346 349 349 348 348 347 346 347 348 348 349
351 352 353 353 353 354 356 357 358 360 363 364 365 368 369 365 362 362 362 361 362 363 363 363 363 360 358 357 355 352 351 349 349 348 347 346 345 346 346 347 349 350 350 351 350 350 351 351 350 350 351 353 355 353 350 348 350 352 350 348 348 347 347 346 347 349 350 347 346 347 348 347 348 347 346 348 349 346 346 347 346 345 346 347 349
351 350 351 351 351 353 355 357 358 358 362 364 365 368 366 361 360 360 359 358 358 360 360 359 358 356 355 353 350 348 346 344 345 345 344 343 341 341 341 343 346 346 345 346 346 345 347 348 348 349 350 351 351 351 350 349 349 349 348 347 346 346 346 345 347 350 348 346 345 346 346 347 348 348 347 348 348 348 346 346 346 346 344 345 347
351 348 348 349 351 353 355 357 357 357 360 361 362 363 361 359 360 359 357 356 356 357 355 353 351 350 350 349 347 346 346 344 343 343 340 338 337 336 338 342 344 344 344 343 343 343 344 346 347 347 349 349 350 351 350 350 350 348 346 346 346 347 347 347 349 349 347 345 343 343 345 348 346 345 346 349 348 348 348 346 345 346 345 345 348
349 347 346 348 350 354 356 356 356 356 357 359 358 358 358 359 359 356 354 353 351 350 347 345 344 344 344 344 343 342 342 341 341 340 339 338 337 338 340 342 343 343 343 343 343 343 345 346 347 346 347 348 349 350 349 348 348 347 345 345 347 350 350 349 349 347 345 343 342 342 344 346 345 344 348 349 347 347 350 349 347 348 348 347 346
348 347 347 349 351 354 356 357 356 354 355 357 356 358 359 357 354 349 348 346 344 344 342 343 343 343 342 342 340 339 338 339 341 341 341 341 341 341 341 342 342 342 343 343 342 343 344 345 346 346 346 347 348 349 348 347 346 345 345 345 348 351 351 350 349 347 346 345 343 342 341 344 344 343 345 345 346 348 350 348 347 349 348 346 343
347 348 347 350 353 354 356 358 355 353 354 356 357 359 357 351 347 345 345 344 343 344 345 344 344 342 341 341 341 340 340 341 340 340 341 343 342 341 341 340 341 341 342 342 342 342 343 344 346 346 347 348 349 348 348 346 344 345 346 346 349 350 349 349 348 347 347 347 345 344 343 345 344 343 344 343 343 345 347 347 346 347 348 346 345
349 349 350 352 353 355 357 358 354 353 356 358 358 357 352 346 345 345 345 345 347 347 346 344 342 341 342 342 342 341 341 341 340 340 341 341 341 340 339 339 339 340 340 340 341 342 343 345 345 346 347 348 348 347 346 346 346 346 346 346 348 349 349 349 347 346 346 346 345 344 345 345 344 342 342 341 341 343 346 346 345 346 348 348 346
349 348 350 352 353 354 356 358 354 355 359 359 357 352 346 345 347 347 346 347 347 346 345 345 343 342 344 344 342 342 342 343 343 342 342 342 340 339 340 339 339 339 339 339 340 341 341 343 344 344 345 345 346 346 346 346 347 346 346 345 345 346 347 347 345 345 346 346 343 342 342 343 343 342 341 340 339 342 345 345 343 345 348 348 346
350 349 351 353 353 353 355 357 357 358 360 357 352 348 346 347 348 348 348 347 346 346 346 345 345 344 344 343 342 343 342 342 342 342 342 342 341 341 340 340 340 339 339 339 339 340 340 341 342 342 344 344 345 347 347 345 344 344 345 345 344 344 344 343 343 343 343 343 343 343 344 343 343 343 342 341 340 341 345 345 344 344 346 347 345
351 350 351 352 354 354 355 358 360 359 358 354 349 347 347 349 349 349 347 346 346 347 348 347 347 346 344 343 342 342 341 340 340 341 341 342 342 341 340 340 340 339 339 339 339 339 339 340 341 342 343 344 344 344 345 344 343 343 344 345 346 344 343 342 342 342 341 340 339 342 344 343 344 345 344 342 340 341 344 343 343 346 345 344 343
350 350 351 352 354 354 356 362 361 358 356 351 348 348 349 350 349 349 348 346 346 348 348 348 346 345 344 342 341 340 340 340 340 340 340 341 340 340 339 339 338 338 338 338 338 338 339 339 340 341 342 343 343 343 343 343 343 344 344 345 346 345 343 342 342 342 342 342 340 340 341 340 341 344 344 343 342 342 342 341 343 344 344 343 342
349 348 349 352 355 355 359 362 359 357 354 350 348 348 350 351 350 349 348 346 347 348 348 346 345 344 343 342 340 339 339 339 339 339 339 340 340 339 339 338 337 338 338 338 339 338 338 338 339 339 341 343 345 345 344 344 343 344 343 345 345 344 344 343 343 343 342 342 341 340 340 338 339 343 344 344 343 342 344 344 344 344 343 341 342
346 345 346 351 356 358 361 361 358 356 353 349 347 348 350 351 350 349 347 348 349 348 346 344 344 344 343 341 340 339 339 338 338 338 339 339 339 339 339 339 339 339 339 339 339 338 338 338 338 338 339 342 344 345 343 342 341 341 341 343 343 342 342 342 342 343 342 341 341 340 339 338 339 341 342 342 342 341 343 344 345 345 343 342 343
347 344 344 350 358 361 360 359 357 355 350 347 349 350 351 351 349 348 349 349 349 347 345 343 343 343 343 340 338 338 338 338 338 338 338 338 337 337 338 339 339 339 339 339 339 339 339 338 338 337 338 340 341 341 341 339 338 338 339 341 342 341 339 339 340 341 341 339 339 340 339 338 339 339 339 340 340 339 340 341 342 342 342 343 343
351 347 346 351 358 359 358 357 355 353 350 349 350 351 351 351 348 347 349 350 348 346 345 344 344 343 342 341 339 338 338 338 337 338 337 336 336 336 338 338 338 338 338 338 338 339 338 338 338 337 338 339 340 339 340 340 340 340 339 339 341 340 337 337 340 340 339 336 337 338 339 338 337 337 336 338 338 338 338 338 339 339 337 341 344
354 353 350 350 356 358 356 355 354 352 350 350 352 352 351 349 347 347 349 350 348 345 344 344 344 344 342 341 340 339 339 338 337 337 337 336 336 336 337 338 338 337 337 338 338 338 338 338 337 338 339 338 338 339 339 340 341 340 340 339 339 338 337 338 340 340 338 337 338 338 339 338 337 336 336 336 336 337 338 337 337 337 336 339 342
354 355 351 350 355 356 353 352 352 350 349 351 354 353 350 347 348 347 348 348 346 344 344 344 345 344 342 341 340 340 339 338 338 337 337 336 336 337 337 337 337 336 337 337 337 338 337 337 337 337 336 336 336 337 337 337 338 338 338 338 337 338 339 339 339 338 336 336 337 337 337 339 339 339 339 338 336 336 335 336 337 338 338 338 338
353 354 351 348 353 356 351 348 347 348 350 352 354 350 346 345 347 347 346 346 346 344 345 345 345 343 343 341 340 339 339 339 338 338 337 336 336 336 337 336 336 336 335 336 336 336 337 337 336 335 335 335 335 336 336 337 338 339 340 339 337 338 339 339 338 336 335 333 334 335 335 336 337 337 338 339 339 337 335 335 336 338 339 338 337
354 355 351 348 353 353 348 346 345 347 349 351 350 345 341 343 345 344 344 345 345 345 346 345 344 344 343 343 341 340 340 339 339 338 337 336 336 336 336 336 336 335 335 335 335 336 336 337 337 337 337 337 337 337 337 338 338 338 339 339 337 338 339 338 338 336 335 333 333 335 335 335 334 333 334 335 337 338 337 336 336 337 339 339 338
355 354 350 349 354 352 347 345 343 348 350 348 345 342 339 342 343 342 341 341 342 344 345 345 344 343 343 342 340 340 339 339 338 337 336 335 335 335 334 335 336 335 335 334 334 334 335 336 337 338 338 338 338 338 337 337 337 337 338 337 336 337 337 337 337 335 333 332 332 333 333 334 332 332 333 334 334 335 336 337 338 337 337 339 339
355 353 348 349 353 350 345 344 345 349 350 345 342 340 339 339 341 340 340 340 340 341 344 345 345 343 342 341 339 338 338 338 337 336 335 334 332 332 332 333 333 333 333 334 334 334 335 336 337 338 339 338 339 339 338 336 335 337 339 338 336 336 336 335 335 333 331 331 332 331 332 332 331 331 331 331 332 333 333 336 338 338 337 338 339
356 352 350 351 351 349 346 345 347 350 349 344 340 339 338 338 339 339 338 338 338 336 339 345 345 343 342 339 338 338 338 337 335 334 333 332 331 330 330 330 331 332 332 333 333 333 334 335 337 338 338 339 340 340 338 336 335 337 338 338 337 336 335 334 334 332 331 331 331 332 332 330 329 328 328 329 330 330 331 332 335 338 338 338 338
358 355 353 353 352 351 349 347 349 350 348 343 340 339 339 338 338 336 336 336 336 335 335 339 342 341 340 338 338 338 337 336 335 333 331 331 330 330 329 329 330 330 330 330 331 331 332 333 335 338 339 339 340 339 338 337 336 337 337 337 337 335 335 334 333 331 330 330 331 332 331 329 327 327 327 327 327 328 328 329 331 334 336 336 337
361 359 357 356 355 352 351 348 350 350 347 343 342 340 339 338 337 334 334 334 334 335 335 337 338 338 337 337 337 337 337 336 334 333 332 332 331 330 330 329 330 329 328 328 328 329 331 332 334 338 339 339 339 339 340 340 339 338 338 337 337 335 334 334 332 331 330 330 332 331 329 327 327 326 325 325 325 325 326 327 329 332 332 333 336
362 361 358 358 357 353 351 351 351 351 347 345 345 340 339 340 337 334 334 333 334 335 337 337 335 334 334 335 335 336 336 335 333 333 333 333 332 332 332 331 330 330 329 328 328 328 329 331 333 335 336 336 337 338 340 341 341 340 339 338 337 335 334 332 331 330 330 330 331 330 328 327 327 326 325 324 324 324 324 325 327 330 332 332 335
364 363 359 360 358 354 354 355 354 352 349 348 345 341 340 341 338 335 335 335 336 338 339 338 336 335 334 335 335 335 335 334 333 333 333 333 333 333 333 332 332 330 329 329 328 328 329 330 331 332 333 335 336 337 339 339 339 340 338 336 335 334 333 331 331 331 330 330 330 329 328 327 327 326 325 325 324 323 324 324 324 326 330 332 332
365 362 360 359 358 356 358 357 355 352 350 348 344 341 341 340 338 337 336 336 337 340 340 339 338 336 336 335 335 335 334 334 334 334 334 334 333 333 333 332 331 330 329 329 329 329 330 330 331 331 332 335 337 338 337 337 338 337 335 332 331 332 332 331 331 331 331 330 329 328 328 327 327 327 326 325 324 323 323 324 323 323 325 327 330
363 362 360 359 359 359 360 358 354 352 349 346 343 343 342 340 338 338 338 337 339 341 342 340 338 337 337 336 336 336 335 334 334 334 334 334 334 333 333 332 330 329 329 329 330 330 330 329 330 331 333 335 336 336 335 334 334 335 333 331 331 331 331 331 332 332 333 331 328 328 328 328 327 327 327 326 325 324 323 323 322 322 322 323 326
360 361 360 360 360 360 361 358 353 351 348 345 344 344 342 339 336 337 339 338 340 343 344 341 339 337 337 337 337 336 335 335 335 335 335 334 334 333 333 331 330 329 330 330 330 330 330 329 330 332 333 334 335 333 332 332 330 331 332 332 331 330 330 330 331 332 333 332 329 329 329 329 328 328 327 327 326 325 324 323 322 322 322 323 324
359 361 360 361 361 360 360 357 352 350 349 347 345 343 341 338 336 337 338 339 340 343 344 342 340 338 336 336 336 336 335 335 335 336 335 335 334 333 332 331 330 329 330 330 330 330 330 330 331 332 333 333 333 332 331 330 329 328 330 331 331 330 329 329 330 331 332 332 331 329 330 330 329 328 328 327 327 326 325 324 323 323 323 325 326
357 359 360 359 359 360 359 357 352 349 348 347 345 342 342 341 338 337 338 338 341 343 343 343 341 338 337 337 335 335 336 336 336 336 335 335 334 333 332 330 329 329 329 330 330 330 330 330 330 332 331 331 331 331 330 329 328 327 327 329 330 330 330 329 330 330 331 332 332 331 331 330 330 329 329 328 328 327 325 325 325 324 324 325 327
354 355 357 358 359 359 358 355 352 349 348 346 343 344 344 342 339 338 338 339 342 343 343 342 341 338 337 336 335 336 336 336 337 336 335 335 334 333 331 330 329 329 329 330 329 329 328 328 329 330 330 329 330 330 329 328 328 327 327 327 329 330 330 330 329 329 329 331 333 332 331 330 329 329 329 329 328 327 326 325 325 325 324 325 326
353 354 356 357 358 359 356 354 350 347 345 343 343 345 345 342 340 340 339 340 343 343 342 341 339 338 338 336 336 336 336 336 337 336 336 335 334 333 331 330 329 329 330 330 329 328 328 327 327 328 328 328 329 329 328 328 328 327 327 326 327 329 331 331 329 328 329 331 333 332 330 329 329 328 327 327 328 328 327 325 325 325 324 324 325
353 354 355 357 358 357 355 353 350 346 343 343 344 344 343 341 342 340 340 343 343 343 342 340 338 338 338 336 337 336 337 337 337 336 336 336 334 333 331 330 330 330 330 330 329 327 327 327 328 328 328 328 330 330 329 328 327 327 326 326 328 331 332 331 330 329 331 333 334 332 331 329 328 328 326 325 326 327 326 325 325 325 324 324 325
353 352 354 356 354 355 355 352 348 346 343 343 343 343 341 341 341 340 340 343 344 343 342 339 338 338 337 337 337 337 337 337 337 337 337 336 334 332 330 330 330 330 330 330 328 328 327 327 328 329 328 328 329 329 328 327 327 327 326 327 330 332 331 329 328 330 332 334 334 332 330 329 328 328 327 325 325 326 325 324 325 325 324 324 325
353 352 354 354 354 354 353 351 348 346 344 342 342 343 343 342 341 339 339 343 344 343 340 339 338 337 336 337 337 337 337 337 337 337 336 335 334 332 331 330 329 329 330 330 329 328 328 328 328 328 328 327 327 328 328 328 327 327 326 328 331 331 330 328 328 328 330 332 333 331 329 328 329 329 328 326 324 324 324 324 324 325 325 325 325
352 353 354 356 355 354 352 351 349 347 346 344 342 343 343 343 341 339 339 342 343 341 340 339 338 337 337 337 337 337 337 336 336 336 335 334 333 331 330 330 329 330 330 328 328 328 327 328 328 327 327 326 326 327 328 328 327 327 326 327 330 332 330 328 328 328 329 329 330 330 330 329 329 329 327 324 322 323 324 325 324 325 325 325 325
351 353 355 356 356 354 352 350 349 349 348 346 344 344 342 343 343 341 339 339 341 341 339 339 338 337 337 337 337 337 337 335 334 335 334 334 333 331 331 331 330 329 328 328 328 327 328 328 329 329 328 327 327 327 329 328 327 326 326 325 327 330 330 328 328 328 328 327 327 329 330 329 329 328 325 322 321 323 324 324 324 324 326 326 324
349 351 355 356 355 354 351 349 350 351 350 347 348 348 346 345 346 345 341 339 339 339 339 339 339 337 336 337 339 338 337 336 335 334 334 333 333 332 332 331 330 328 328 328 328 328 329 328 329 330 329 328 327 328 330 330 328 327 325 322 323 326 328 326 326 326 325 326 326 327 328 329 330 327 323 321 322 324 323 322 323 325 326 326 325
349 352 353 353 352 352 350 348 348 350 350 349 350 351 350 348 347 346 344 341 340 339 339 340 340 339 337 338 338 337 337 335 335 335 334 334 334 333 332 331 331 329 329 329 329 329 329 329 329 329 328 327 328 330 331 331 330 329 327 323 321 322 323 321 321 324 326 326 326 327 329 329 328 324 321 321 324 324 323 322 323 325 326 326 325
349 350 348 347 346 347 345 342 342 344 346 349 351 351 351 349 347 347 346 343 341 340 340 341 341 341 340 338 338 338 337 335 335 335 335 334 335 335 334 333 331 331 330 330 330 330 330 330 330 329 327 326 328 330 330 330 331 330 328 324 321 320 320 319 320 324 326 325 326 328 328 326 324 322 322 323 325 325 324 323 324 325 326 326 325
344 342 341 341 342 343 341 338 339 339 343 348 351 350 350 349 348 347 345 345 343 341 341 343 343 343 342 339 338 337 337 336 336 336 335 335 336 336 335 334 332 332 332 331 331 330 330 330 329 328 328 326 327 328 329 329 329 327 324 322 321 319 319 319 319 321 322 324 327 326 323 322 324 324 324 325 327 326 325 325 325 326 327 326 325
337 338 339 339 341 342 342 342 345 346 348 349 348 347 347 347 347 345 344 344 344 342 342 344 344 344 342 339 338 338 337 336 337 336 336 336 336 336 336 334 330 330 331 332 332 331 331 330 329 328 328 326 326 328 329 328 326 324 323 322 322 320 319 320 321 321 323 324 325 323 321 324 327 327 327 328 328 326 325 326 326 326 327 327 326
338 342 342 339 339 341 342 344 348 348 349 348 346 345 346 345 345 344 343 343 344 344 345 345 343 341 340 339 339 337 336 337 337 335 334 334 334 335 335 332 328 328 331 332 331 330 329 328 328 327 327 326 326 328 328 327 325 323 322 322 321 321 321 323 324 324 324 324 323 321 322 325 327 327 329 329 326 325 325 326 327 327 327 327 326
344 345 343 340 339 339 339 340 344 345 346 346 345 344 345 344 344 342 341 343 346 345 345 345 343 340 339 339 338 336 336 337 336 333 332 332 333 334 333 330 327 327 330 330 329 328 328 328 328 327 327 327 326 327 328 325 322 321 321 321 320 321 323 324 324 325 324 322 321 322 324 326 327 327 328 328 325 325 325 325 326 326 326 326 326
345 343 342 342 341 341 341 342 343 344 344 341 339 338 337 337 339 338 337 341 344 345 344 343 343 341 339 337 336 336 336 336 334 332 332 333 334 332 329 328 328 329 330 330 328 328 328 328 328 327 327 327 326 326 325 321 319 320 321 320 319 321 322 322 322 323 321 320 321 324 326 326 326 326 327 327 326 326 325 324 324 324 324 325 325
345 344 344 344 342 342 341 341 342 342 340 339 338 336 333 331 331 333 335 337 341 344 343 341 340 339 337 335 335 336 336 335 333 332 331 332 332 331 331 330 330 331 331 329 327 327 327 327 326 326 327 326 326 324 321 318 318 319 319 320 320 319 319 320 321 321 321 322 324 325 325 324 324 325 325 325 325 325 325 323 323 323 323 323 323
343 342 342 341 340 339 338 339 340 340 339 337 336 336 335 332 330 331 334 336 339 342 340 337 335 335 334 334 335 335 333 332 331 331 331 328 326 328 331 332 329 328 328 326 324 324 324 324 324 325 324 323 322 320 318 317 317 317 317 319 320 319 318 320 321 321 322 324 325 325 323 323 323 323 323 323 323 323 323 322 322 322 321 320 320
338 339 340 340 339 338 338 339 339 338 337 336 335 335 335 333 332 333 335 336 338 338 336 333 332 332 333 332 332 332 332 330 329 332 332 329 326 324 326 327 326 324 324 323 322 321 321 321 321 323 322 320 318 318 317 316 316 317 317 318 319 318 318 319 320 321 323 325 325 323 322 322 322 321 322 321 321 321 321 320 321 320 319 319 318
Wind_Speed
14 15 14 14 13 13 12 11 11 10 10 10 10 10 9 8 8 8 7 6 6 6 7 6 6 7 7 7 8 8 8 8 8 8 9 9 8 8 8 10 15 16 15 15 15 15 15 15 15 15 14 14 15 16 19 19 20 22 20 19 24 24 22 19 17 19 18 16 17 21 26 26 22 20 21 24 25 22 21 22 21 19 19 20 20
13 13 13 14 14 13 12 11 11 11 11 11 11 10 9 8 7 7 6 6 6 5 5 5 5 5 6 6 7 7 7 7 7 7 7 8 7 7 8 10 11 12 12 13 15 15 13 14 15 15 15 14 15 15 18 20 20 21 17 18 23 23 23 20 16 16 15 14 14 13 16 21 24 26 26 26 26 26 24 25 24 22 21 21 20
11 12 13 14 14 14 12 11 11 11 11 11 10 9 9 8 7 6 5 5 5 4 4 4 4 4 4 5 5 6 7 6 7 8 9 9 9 9 10 10 9 9 10 11 13 14 13 14 15 15 15 14 14 15 17 19 20 21 18 17 20 19 20 21 19 18 16 12 10 8 7 10 14 19 24 26 27 28 27 25 24 23 23 22 20
11 12 13 14 14 14 13 11 11 11 11 11 10 9 8 7 6 5 4 4 4 4 3 3 2 2 3 4 4 6 6 6 7 7 8 8 8 9 9 6 6 8 9 10 12 14 14 16 16 15 16 16 16 16 16 16 18 20 18 17 19 18 17 19 20 20 19 13 6 5 6 8 8 9 15 20 22 25 27 26 25 25 25 24 22
12 12 12 13 14 13 13 12 11 11 10 10 10 9 7 6 6 5 4 3 3 4 2 1 1 2 2 3 4 4 5 5 6 6 6 7 8 9 7 6 7 8 9 10 11 12 13 15 15 16 17 17 17 16 14 13 13 14 15 15 17 17 17 16 14 16 19 18 10 6 6 6 7 7 9 11 13 18 22 24 24 23 23 23 20
13 13 12 13 14 13 13 12 11 11 10 10 9 9 8 8 7 6 5 4 4 4 3 2 1 1 2 3 4 4 5 5 5 6 7 8 8 9 8 7 8 8 8 9 10 11 12 13 14 15 16 15 15 15 14 14 14 14 15 15 12 12 14 14 14 16 19 21 21 22 17 12 9 7 5 5 8 14 17 18 20 20 21 22 22
12 13 13 13 14 14 14 14 13 12 11 10 10 10 10 9 8 7 6 6 5 5 4 2 2 1 1 3 4 5 6 5 6 7 7 7 8 8 8 8 8 8 9 9 10 11 12 13 13 13 13 13 13 13 13 14 15 14 14 14 10 9 10 12 15 16 15 17 22 28 26 23 20 13 5 4 5 9 13 16 18 18 21 24 25
12 13 13 13 15 15 15 15 14 12 12 12 12 12 11 10 10 8 7 7 6 5 4 2 1 1 2 3 4 5 6 6 6 6 6 6 7 8 8 8 8 8 9 10 10 10 11 12 11 11 10 10 10 10 11 13 13 12 13 13 10 10 11 13 15 13 13 14 15 19 20 21 25 23 16 10 5 6 10 14 17 19 20 23 23
13 13 13 14 15 16 16 15 14 14 14 13 13 13 12 12 11 10 8 7 6 5 4 3 2 1 2 2 4 5 5 6 7 6 6 6 7 8 9 9 9 9 9 10 10 10 11 11 10 10 9 8 8 9 10 11 11 11 13 13 11 11 11 13 15 13 14 14 11 12 14 16 20 21 20 16 10 10 10 10 14 16 17 20 21
14 14 14 15 17 17 16 16 15 15 15 14 14 14 13 13 12 11 9 8 7 6 5 4 3 2 2 2 4 5 5 6 6 6 6 6 8 8 8 9 9 9 9 9 9 10 10 10 10 10 9 9 8 8 9 9 11 12 13 14 12 12 13 14 15 14 14 15 14 13 13 14 13 11 14 17 13 13 13 12 15 15 13 17 22
13 13 14 16 17 17 17 17 16 16 16 15 15 15 14 14 13 11 10 8 7 7 6 6 5 4 3 3 4 5 5 6 6 7 7 6 7 7 8 8 8 8 9 9 9 9 9 10 10 10 10 9 8 7 8 9 10 10 11 13 13 12 14 16 15 15 16 16 15 14 14 15 14 12 14 16 12 11 11 10 15 18 15 15 22
13 12 14 15 16 17 18 18 18 17 17 17 16 16 15 14 13 12 11 9 8 8 8 7 6 4 3 3 4 4 5 6 6 6 6 7 7 7 8 8 9 9 9 9 9 10 10 10 10 10 9 9 9 8 9 9 11 10 10 11 11 12 16 17 15 16 17 17 16 14 14 16 17 18 18 17 16 16 12 7 12 15 11 13 21
14 12 13 13 14 17 19 19 19 18 18 18 17 16 15 14 14 13 11 10 9 9 8 8 6 5 4 3 3 4 5 5 6 6 6 7 7 8 9 9 9 9 9 9 9 10 10 9 10 10 9 8 9 9 9 10 10 10 9 10 11 13 16 16 15 17 17 17 17 17 17 18 18 18 19 19 20 20 14 10 14 13 8 11 20
14 13 13 13 14 18 20 20 20 19 19 19 17 16 15 14 14 13 12 11 10 10 9 8 6 5 4 3 3 4 4 5 5 6 6 7 8 9 9 10 10 10 9 9 10 10 10 10 10 10 10 8 8 9 9 9 9 10 10 10 11 12 13 13 14 16 18 18 17 17 18 20 20 18 17 17 19 20 17 14 13 11 10 12 17
15 15 15 15 18 21 21 21 20 20 20 20 18 17 15 14 14 13 12 12 11 11 9 8 6 5 4 4 3 4 4 5 5 6 6 7 8 9 10 10 10 10 10 10 10 10 10 10 10 10 10 9 7 8 9 9 10 11 11 10 11 12 12 13 14 15 17 18 18 18 17 19 21 20 19 19 20 22 21 19 14 7 8 10 10
17 17 16 18 22 23 22 22 21 20 21 20 19 18 16 14 14 14 13 13 12 11 9 7 6 5 5 4 4 4 5 5 6 6 6 7 8 9 10 10 10 10 10 10 10 10 10 11 11 10 10 9 8 8 9 10 11 11 11 11 11 12 12 14 14 14 16 17 18 18 18 19 21 23 22 22 24 25 25 24 19 10 7 7 8
17 17 17 18 21 23 23 23 22 21 22 21 20 19 17 15 14 14 13 13 12 11 9 7 7 6 6 5 5 5 5 6 6 6 7 8 8 9 10 9 10 9 10 10 10 10 10 10 11 11 10 10 10 10 10 11 11 10 10 11 12 13 14 14 13 13 17 19 19 18 18 20 21 22 22 22 24 26 27 28 24 18 14 10 9
17 17 17 18 22 23 23 23 22 22 23 22 21 19 17 15 14 14 14 14 13 11 10 8 7 7 6 6 6 6 6 6 7 7 7 8 8 9 9 9 9 9 9 9 10 10 10 10 11 11 10 10 10 10 10 10 10 10 11 11 11 12 13 13 12 13 15 16 17 17 18 19 20 20 22 22 24 26 28 29 28 26 25 20 14
16 17 16 17 21 23 23 23 23 23 22 22 22 19 17 15 15 15 15 14 13 11 10 9 8 8 7 6 6 6 6 6 7 7 7 8 8 9 9 9 9 9 9 9 10 10 11 11 11 11 10 10 10 10 11 11 10 11 11 11 11 11 11 12 12 13 14 14 16 17 18 19 18 17 19 20 23 26 28 29 29 29 29 28 26
15 16 16 16 20 23 24 24 24 23 22 22 22 20 18 17 16 15 15 14 13 12 10 9 9 8 7 6 6 6 7 7 7 7 8 8 8 9 9 9 9 9 10 10 11 11 11 11 11 11 11 10 10 10 11 10 10 10 10 11 12 12 11 12 13 14 15 16 17 18 19 20 20 19 19 19 21 24 26 28 29 30 29 31 33
15 15 16 17 21 24 25 24 24 23 22 22 21 20 18 17 16 16 15 14 13 12 11 10 9 8 8 7 7 7 7 7 7 7 8 8 9 10 10 10 10 10 11 11 11 11 12 12 12 11 12 11 10 11 10 10 9 9 9 10 12 12 12 13 14 15 16 17 17 18 20 21 23 24 23 23 23 22 23 26 29 31 31 31 32
15 15 15 16 19 23 24 24 23 23 22 22 21 19 18 17 17 16 15 14 13 13 12 10 9 8 8 8 7 8 7 7 7 7 8 9 10 11 11 10 11 11 11 11 12 12 12 12 12 12 12 11 11 11 10 10 10 10 10 10 11 12 13 14 15 16 17 17 17 19 20 22 24 25 26 26 26 26 23 22 26 30 30 31 31
14 15 14 15 19 23 24 23 23 23 22 22 20 18 18 17 16 15 14 14 13 12 13 12 10 9 8 8 8 8 8 8 8 8 9 10 10 11 11 10 11 11 11 11 12 12 13 13 13 13 12 11 11 11 10 10 11 11 11 11 11 12 13 15 16 16 16 16 18 19 20 21 23 25 27 27 28 29 27 22 24 28 30 33 35
14 14 14 15 19 21 21 22 22 22 22 21 19 17 16 15 14 13 13 13 11 9 10 11 10 9 8 8 8 8 8 8 9 9 9 10 11 12 11 10 11 12 12 12 12 12 12 13 14 14 13 12 11 12 11 12 12 12 12 12 12 12 13 14 15 15 15 16 18 18 19 21 23 24 26 27 27 28 30 28 26 26 25 30 35
14 15 15 17 18 16 18 21 22 22 22 21 18 16 15 14 13 12 11 12 11 9 8 10 10 9 8 8 8 8 8 9 9 9 10 11 11 11 11 11 12 13 13 13 13 12 11 13 15 14 13 13 13 13 13 13 13 12 13 14 13 13 14 14 14 14 15 16 16 16 18 19 21 22 24 25 26 27 29 31 30 26 24 28 33
15 16 16 17 16 15 18 22 22 23 22 20 19 17 15 14 12 11 10 9 9 8 8 8 8 8 8 7 8 8 8 8 9 9 9 10 11 11 12 13 13 13 14 14 14 13 12 13 15 13 13 15 15 14 13 13 13 13 14 14 14 14 15 15 14 14 15 16 15 15 17 18 18 21 23 25 27 27 27 30 30 30 31 31 31
12 14 14 15 15 16 18 22 23 23 22 21 19 17 15 14 13 12 10 9 8 8 7 7 7 7 6 7 7 7 8 8 8 9 9 10 11 12 12 13 13 13 15 15 15 14 13 14 15 13 13 14 15 14 13 12 13 13 14 14 14 14 15 16 15 15 15 15 15 15 16 17 17 19 23 26 27 28 29 30 30 30 31 30 28
12 13 14 15 16 16 17 21 23 23 22 21 19 18 17 16 15 13 11 10 9 9 9 8 8 7 6 7 7 7 8 8 8 9 9 10 11 12 12 13 13 13 15 15 16 16 15 14 15 14 14 14 14 13 11 11 11 12 13 14 15 15 16 17 16 15 15 15 15 15 16 17 18 21 25 26 27 28 30 31 30 28 27 26 27
14 15 16 16 16 16 17 21 23 23 22 21 19 19 17 15 14 14 12 11 10 10 10 9 8 8 7 7 7 7 8 8 9 9 9 10 11 12 13 13 13 14 15 16 16 16 15 15 15 15 14 13 13 11 10 11 12 13 14 15 16 16 16 17 17 16 16 15 15 15 16 18 22 26 26 25 25 26 26 29 31 30 28 26 25
15 15 16 16 16 17 18 21 23 23 23 22 19 18 16 15 15 15 14 12 11 11 11 10 9 9 8 8 8 8 8 9 9 9 9 10 11 12 13 13 13 14 15 15 15 15 15 15 15 15 14 12 12 11 11 13 14 15 16 16 16 16 16 16 17 17 16 15 15 15 17 20 24 26 24 23 26 26 24 27 31 31 30 28 25
14 15 16 16 17 18 19 21 23 24 24 22 20 19 18 18 18 17 15 13 12 12 11 11 11 10 9 9 9 9 10 10 10 10 10 10 11 12 12 12 13 14 14 14 14 14 15 15 14 14 13 12 12 13 12 12 14 16 17 16 15 16 16 16 17 17 16 16 16 17 17 19 22 22 22 24 27 27 27 29 31 32 30 27 24
13 15 15 17 18 18 19 21 24 26 25 23 22 22 21 21 18 16 16 14 13 12 12 12 12 11 10 10 10 10 11 10 10 10 10 10 11 11 12 12 13 13 13 13 13 14 14 15 14 13 13 13 14 14 14 13 15 16 17 16 16 16 16 16 17 17 16 16 17 18 18 18 20 22 24 26 27 28 29 32 33 32 30 26 24
12 13 15 16 16 17 20 23 25 26 25 24 23 22 22 20 18 16 15 14 14 13 13 13 12 12 12 12 12 11 11 11 11 11 10 10 11 11 12 12 12 13 13 13 13 14 14 14 14 13 14 14 14 14 14 14 15 16 16 17 16 16 16 17 18 18 17 16 16 18 19 19 20 23 23 23 26 29 32 35 35 31 28 26 25
10 12 13 13 13 16 20 23 25 26 25 24 23 21 20 19 18 16 15 14 14 13 13 13 13 13 13 13 13 13 12 12 12 11 11 11 11 11 11 11 12 13 12 12 13 13 13 13 13 13 14 14 14 14 13 13 15 16 17 17 17 16 16 18 19 21 20 18 16 17 19 21 23 25 24 23 26 31 33 36 35 30 27 26 25
10 11 11 12 13 16 20 22 23 24 23 22 21 19 18 18 17 17 16 15 14 13 14 14 14 14 14 14 13 13 13 12 12 12 12 12 12 11 11 11 12 12 12 13 13 13 13 13 12 13 13 14 14 13 12 13 15 16 16 17 17 17 17 18 20 22 21 18 16 17 19 22 24 26 27 28 29 31 33 34 31 29 29 28 25
9 10 11 12 14 17 19 21 21 21 21 20 19 18 17 17 17 17 17 16 15 15 15 15 15 15 15 15 14 13 13 12 12 12 12 12 12 11 11 11 11 12 12 12 13 13 13 12 12 13 13 15 14 13 13 13 14 15 16 16 16 15 16 18 20 20 19 17 17 17 19 22 24 26 27 29 29 30 32 31 27 28 31 30 27
10 11 12 14 16 17 19 20 20 20 19 18 18 17 17 16 17 17 17 16 16 16 16 16 16 16 16 16 15 13 13 13 12 13 13 12 12 11 11 11 11 12 12 12 13 13 12 12 13 13 13 15 15 14 14 13 13 14 15 14 13 14 17 21 21 19 17 16 16 18 20 22 24 26 27 28 29 30 32 31 27 28 30 30 30
11 12 14 15 15 16 18 18 18 18 18 17 16 16 16 16 17 17 17 17 16 17 17 17 17 17 17 16 15 13 13 13 13 13 13 13 12 12 11 11 11 11 12 12 12 12 12 12 13 13 14 15 16 17 16 12 10 13 15 13 12 14 18 21 21 20 18 17 17 20 22 22 24 25 26 28 28 28 30 31 29 29 29 29 30
13 13 14 16 16 16 16 16 16 17 16 16 15 15 15 15 17 18 17 17 18 18 18 18 17 17 16 15 14 14 13 13 13 14 14 13 13 12 12 12 12 11 12 12 11 11 12 12 12 14 16 15 15 16 13 10 9 12 15 13 11 12 15 18 19 20 19 18 18 19 20 22 22 24 25 27 27 26 27 28 29 29 28 29 32
14 15 15 16 16 16 15 16 16 15 15 14 14 14 14 15 16 17 18 18 19 19 18 17 17 16 16 15 14 14 14 14 14 14 14 14 13 13 13 12 12 12 12 11 10 11 13 13 12 13 14 15 16 13 9 8 12 15 16 15 12 11 13 16 17 18 19 19 18 18 19 20 21 22 24 25 25 23 22 24 27 29 29 31 36
15 16 16 15 15 15 15 15 14 13 12 12 12 13 13 14 15 16 18 19 19 19 17 16 17 17 17 16 15 15 15 15 14 14 14 14 14 14 13 13 13 12 11 10 10 11 13 14 13 12 14 16 16 11 7 8 13 15 15 15 13 10 12 15 17 18 19 18 18 18 18 19 21 24 25 23 21 19 19 21 25 28 29 31 35
16 16 15 15 14 13 13 13 11 11 10 10 11 12 12 13 14 16 18 18 18 18 17 17 19 18 18 17 17 16 16 15 14 14 14 14 14 14 13 13 13 12 10 10 11 12 13 14 13 13 15 16 12 6 5 8 11 12 14 16 15 13 14 16 18 18 18 18 18 19 18 20 23 24 22 20 18 16 17 20 24 27 28 30 33
16 15 13 13 13 11 12 12 11 10 10 9 11 12 11 12 13 15 16 16 17 18 18 19 20 19 19 18 17 16 16 15 14 14 15 15 15 14 14 14 14 13 12 11 11 12 12 13 13 13 14 14 10 5 5 7 8 11 15 17 16 15 15 16 16 17 19 19 18 17 19 22 23 20 18 17 15 14 16 20 23 26 27 29 31
15 15 13 12 11 10 10 9 8 8 8 9 9 9 10 12 13 14 15 15 17 18 19 20 20 19 19 17 16 16 16 15 14 14 14 14 14 15 15 13 13 13 12 12 12 11 11 11 13 13 13 13 9 4 3 5 7 11 16 17 14 14 14 15 16 19 21 20 18 19 22 22 19 15 15 14 13 14 18 20 23 25 25 27 29
14 13 12 11 9 8 7 6 5 4 5 6 7 8 10 12 13 13 13 14 16 16 18 18 17 17 16 16 16 16 15 15 15 14 15 14 14 15 14 12 13 15 14 12 11 10 10 11 12 12 12 12 8 3 2 6 9 13 16 16 14 14 14 14 17 20 20 18 19 22 23 20 15 13 13 12 12 15 17 17 21 23 24 25 26
12 11 10 9 7 7 7 6 5 5 5 6 6 7 10 11 11 11 12 13 13 14 16 16 15 15 16 16 16 15 14 15 15 15 16 15 14 14 12 10 14 18 14 11 10 10 10 10 12 13 12 11 11 7 5 7 9 13 15 15 15 14 14 15 17 19 17 17 21 22 21 18 16 15 14 11 11 14 16 17 20 23 23 24 26
11 11 9 7 6 6 5 4 3 4 4 5 5 6 8 9 9 11 12 12 12 13 15 16 15 15 15 14 14 15 15 14 14 16 18 16 12 11 9 7 14 19 15 10 11 11 10 9 11 12 11 10 11 9 7 9 13 15 15 16 15 13 14 14 15 15 16 18 21 21 18 16 14 13 12 9 8 14 19 21 22 23 23 25 27
12 10 8 7 6 5 4 3 3 2 1 3 5 7 9 10 11 12 12 11 11 12 13 14 13 12 12 13 14 15 14 13 13 15 15 11 8 8 7 9 15 18 13 10 10 9 9 9 10 10 9 10 10 8 9 12 16 16 16 17 15 13 15 16 15 16 19 20 21 19 16 13 11 10 9 7 8 13 19 22 22 23 24 25 26
11 10 9 8 7 6 5 5 4 2 1 2 4 6 9 11 11 11 11 10 10 10 11 11 11 12 13 15 15 14 12 12 14 13 10 9 9 8 7 9 13 14 11 9 8 7 7 8 8 8 7 6 6 7 9 13 15 15 15 15 14 14 17 19 18 17 18 18 18 16 12 11 12 12 11 11 12 14 18 20 21 23 25 26 27
11 11 10 9 8 6 5 4 4 2 1 1 3 5 7 9 10 9 7 7 8 9 10 12 14 15 16 16 14 13 13 16 17 13 10 10 10 9 9 10 12 12 11 11 10 8 8 7 6 4 3 4 5 7 11 13 13 14 14 13 12 14 16 18 18 16 15 16 14 11 10 11 12 12 13 14 14 14 15 17 19 21 23 25 27
10 10 9 8 7 6 5 5 4 2 1 1 3 3 4 6 6 5 5 6 8 9 11 13 14 13 12 12 11 12 14 16 14 10 12 11 9 9 9 8 8 9 9 8 7 7 7 6 3 1 1 4 6 8 11 13 13 15 14 11 10 11 14 16 15 14 14 13 10 9 10 11 11 12 13 14 15 15 15 16 16 17 20 23 25
Wind_Direction
169 175 171 168 172 173 174 175 175 176 177 179 182 186 184 182 179 178 184 192 203 207 212 219 225 229 230 237 246 252 257 259 260 262 264 269 266 261 266 268 271 279 280 278 277 275 274 272 267 266 263 256 253 250 250 252 254 256 259 258 259 262 258 251 253 255 252 258 265 263 261 260 253 244 247 251 253 255 251 250 250 245 238 231 229
162 167 171 173 176 176 177 179 181 182 183 185 188 188 186 184 179 179 181 190 208 216 222 226 228 237 242 249 258 262 265 268 271 276 278 281 278 268 270 270 272 282 286 289 291 285 275 270 268 268 267 258 250 249 251 255 255 253 253 256 257 259 259 255 255 250 243 246 259 268 267 264 259 252 250 248 248 253 251 246 245 245 244 238 231
161 169 176 180 181 178 178 183 188 187 186 187 187 180 179 185 185 187 190 198 208 208 221 232 229 244 259 267 276 281 284 287 289 292 290 289 289 283 277 271 272 281 283 286 290 290 283 279 280 277 273 266 257 253 256 258 254 248 246 248 251 254 257 260 254 244 240 241 250 260 260 266 261 249 247 245 245 249 250 249 245 243 245 243 237
171 178 181 186 184 180 180 186 188 187 187 184 180 174 176 187 187 188 191 194 195 186 199 227 241 262 282 292 296 297 299 299 296 291 287 291 293 287 285 287 292 296 296 292 289 292 290 288 290 286 282 278 270 264 261 256 248 247 246 244 247 250 254 258 249 239 239 237 240 261 254 255 256 244 242 241 240 243 246 249 250 247 245 245 240
180 183 183 187 185 181 181 185 187 185 185 183 180 177 177 178 172 170 166 157 155 152 156 174 233 288 300 305 300 296 301 300 296 297 301 305 303 303 320 335 323 311 307 302 297 295 294 292 291 288 287 286 281 277 275 272 263 261 258 249 245 247 256 263 252 241 244 245 244 249 253 252 253 263 259 246 242 246 248 248 251 250 246 245 243
184 185 185 187 183 182 180 181 185 182 180 180 176 171 164 159 156 153 149 144 139 135 135 142 175 281 296 304 307 308 307 306 308 312 314 315 316 321 330 329 322 319 313 306 304 301 299 297 293 289 287 286 286 284 286 289 285 283 279 269 260 256 263 269 264 261 257 251 244 240 245 255 267 289 295 277 263 255 255 254 253 255 254 252 249
184 187 188 185 180 180 179 179 183 180 175 172 165 160 155 152 153 154 152 149 144 142 145 149 163 226 296 305 312 313 305 307 312 308 307 311 316 320 321 319 319 319 316 311 311 308 305 303 300 295 291 289 288 284 287 290 283 281 283 280 280 275 269 268 270 271 261 251 244 243 249 255 260 269 272 278 281 260 258 257 254 258 263 261 254
181 186 188 184 179 180 177 177 181 175 167 164 160 157 155 154 156 158 156 154 153 155 155 156 167 228 296 302 305 304 301 306 308 305 305 309 312 315 316 316 316 315 315 313 312 311 310 309 307 304 300 297 292 286 289 291 281 278 282 283 284 276 266 264 268 269 263 259 249 244 249 250 252 253 249 248 262 265 262 257 253 255 259 259 253
182 185 186 182 178 180 176 174 178 170 162 163 160 158 158 159 160 161 162 161 163 165 169 180 188 225 266 285 298 300 302 304 306 309 310 307 308 311 311 310 312 310 309 307 306 309 310 311 311 308 305 299 294 291 294 294 287 283 283 280 275 271 267 264 265 265 263 263 256 249 254 255 254 254 252 250 246 252 258 257 255 254 253 251 247
183 184 183 181 180 180 175 174 174 165 161 164 161 161 162 163 166 167 168 169 171 176 184 192 195 210 239 268 289 296 300 299 301 305 305 307 308 310 311 310 310 308 309 310 306 306 307 309 310 308 306 301 296 295 296 295 291 290 287 284 281 279 278 276 273 270 266 265 265 260 257 258 258 253 250 248 245 249 252 256 259 257 254 252 248
183 183 181 180 181 179 175 173 170 162 162 165 163 165 166 167 172 173 175 175 177 186 192 195 198 208 234 264 280 289 298 297 299 302 305 311 310 311 314 313 312 311 313 314 312 312 312 311 310 309 310 308 302 298 296 295 294 294 293 292 292 285 280 281 280 277 275 274 270 260 254 256 256 253 249 244 243 247 247 254 259 256 255 255 255
182 183 180 178 180 179 175 171 166 163 165 168 167 169 169 172 175 177 180 182 185 193 196 198 202 212 232 258 278 289 299 299 299 304 309 313 314 317 319 315 314 314 313 314 315 319 318 315 313 312 314 311 309 308 303 300 300 299 295 293 293 286 283 285 283 282 281 278 278 271 263 261 255 253 255 250 250 252 249 256 260 260 268 267 262
180 184 183 181 182 180 175 170 167 167 170 171 172 171 172 175 179 182 185 186 192 198 198 200 206 213 229 255 279 290 296 297 300 303 307 312 314 315 315 313 313 310 311 313 314 318 318 316 316 314 312 308 304 305 303 301 302 300 295 289 288 289 290 291 287 285 284 280 282 280 272 270 265 257 256 253 251 250 243 246 257 258 262 269 270
180 187 187 187 188 181 174 170 170 171 171 173 175 174 174 178 182 186 188 190 196 199 200 203 208 214 223 245 270 284 290 292 296 301 306 311 310 308 308 308 307 307 309 312 312 315 315 315 316 313 310 303 293 292 294 298 299 296 293 290 290 292 293 294 290 288 289 287 284 279 274 278 276 266 258 253 251 252 246 246 255 252 247 256 265
180 188 192 194 191 181 173 171 172 172 172 174 177 175 177 180 184 188 191 193 197 200 202 205 210 214 219 237 263 274 281 287 290 293 295 298 299 299 300 300 301 303 305 306 308 311 314 315 315 312 310 304 296 293 297 305 306 301 299 295 294 297 295 294 294 290 292 294 291 287 286 284 280 277 274 263 254 253 250 249 252 246 246 255 252
182 186 192 196 192 182 174 172 173 173 172 175 177 177 180 182 184 190 192 195 199 201 204 209 215 218 223 240 260 266 271 278 280 282 287 293 297 297 296 298 298 298 297 300 304 308 313 314 312 310 309 306 304 303 304 308 309 306 306 302 296 299 300 299 301 298 297 299 299 297 294 287 284 284 282 272 263 258 254 252 252 247 248 257 251
185 183 184 193 194 184 176 173 174 174 174 175 177 179 182 182 184 190 193 196 199 203 207 211 216 220 228 241 251 259 266 272 278 284 288 291 293 293 294 298 298 296 295 296 300 306 310 311 309 307 307 307 308 308 308 307 307 307 307 304 300 304 306 304 304 304 302 302 303 300 294 292 292 291 285 278 273 267 261 257 253 247 248 255 259
188 181 178 190 195 184 177 175 175 176 174 173 175 178 181 183 186 190 193 197 200 204 209 212 215 221 231 240 244 251 259 266 274 279 282 285 288 291 296 300 300 298 295 297 300 304 308 308 307 305 304 307 309 310 310 307 306 307 307 304 304 309 310 306 307 308 307 306 305 302 297 295 295 294 290 284 278 272 267 266 264 253 244 246 255
188 182 178 191 195 183 176 175 175 176 174 172 173 176 181 184 188 192 194 198 201 206 210 211 214 222 231 237 240 245 252 259 266 272 275 277 282 288 295 301 303 301 298 300 301 303 306 306 305 303 303 305 307 309 310 310 305 303 306 309 310 311 308 306 309 312 314 314 309 306 304 299 296 294 291 285 279 277 273 271 268 257 246 245 251
190 183 179 190 194 184 177 176 176 174 174 173 173 178 184 185 187 192 194 198 202 206 209 209 214 223 229 233 240 243 245 252 258 265 269 274 281 289 294 297 301 302 301 301 301 302 305 304 303 303 302 302 302 305 309 309 302 298 301 308 311 309 305 304 307 309 315 318 314 309 307 304 303 301 296 288 281 278 276 272 266 260 255 253 252
192 183 180 190 191 183 177 176 175 172 174 178 178 182 186 185 186 192 195 199 203 205 207 211 215 221 227 231 239 241 241 250 256 262 269 274 279 282 284 289 294 298 299 299 301 302 302 301 303 302 302 302 299 301 307 306 300 297 297 302 306 306 305 305 306 307 313 318 316 312 309 308 310 309 305 299 291 284 279 274 267 262 259 256 251
193 182 183 193 191 181 176 176 174 172 178 183 182 184 186 185 186 191 197 202 205 205 205 211 215 218 227 233 238 241 241 248 255 263 268 270 273 277 279 282 284 290 296 299 301 301 299 298 299 298 299 300 296 296 300 301 299 295 294 299 304 304 305 305 304 308 313 317 317 315 314 314 316 315 311 307 302 296 288 275 267 265 262 257 252
192 181 186 197 192 180 173 174 174 173 180 184 183 185 186 186 187 189 197 205 210 208 199 201 211 217 225 233 236 238 241 246 255 261 265 269 276 279 278 277 282 289 294 295 296 296 295 294 293 294 294 293 291 289 289 292 294 290 287 294 299 300 302 302 302 306 310 315 317 317 319 321 323 322 318 313 308 302 296 281 266 264 263 260 254
192 184 188 194 190 178 169 173 175 174 180 183 182 184 184 185 189 192 198 204 211 211 195 193 206 217 223 229 233 236 241 248 257 263 265 270 279 285 290 293 294 292 290 290 290 290 293 293 290 288 289 287 285 285 286 288 287 283 282 288 295 300 300 299 301 304 308 313 314 316 321 326 328 326 321 317 315 311 305 294 276 265 262 261 258
192 187 187 187 185 176 168 173 175 174 178 179 177 181 180 181 190 197 203 204 202 206 202 197 205 216 219 224 231 237 243 250 259 267 272 277 286 295 300 295 288 287 291 294 293 291 295 296 291 288 288 288 285 284 286 286 284 283 283 286 293 299 298 297 299 301 306 311 313 316 322 327 329 329 325 321 317 316 313 307 295 283 276 273 265
195 189 186 183 179 174 171 173 174 174 174 171 172 177 178 178 189 200 205 203 196 200 204 201 210 219 218 222 233 240 247 255 261 267 273 280 288 291 290 291 293 297 299 298 295 296 297 297 293 289 286 286 285 284 283 283 285 285 284 284 289 294 294 295 299 300 303 309 311 315 320 324 327 328 327 322 317 316 315 311 305 294 288 285 272
197 192 188 183 178 175 173 173 172 171 168 167 170 175 176 179 193 200 199 198 196 197 198 203 217 226 222 228 237 241 249 257 262 267 272 277 284 289 293 298 301 299 296 294 296 297 296 296 295 291 286 284 284 283 281 281 283 279 278 282 287 292 293 295 298 297 299 307 311 313 318 323 322 321 321 318 317 319 317 313 310 300 288 284 280
193 194 191 186 181 176 173 173 171 168 166 165 168 174 177 182 192 198 198 197 193 191 194 202 213 221 225 231 239 243 247 255 259 263 270 276 283 289 291 292 291 291 293 295 296 297 297 298 297 294 292 287 282 280 280 283 281 275 277 284 287 290 292 295 297 296 296 304 310 312 316 320 315 312 315 316 318 323 320 315 316 314 303 290 285
192 193 192 189 183 175 175 175 172 169 166 165 170 177 178 181 190 197 200 198 190 187 193 201 205 212 219 224 232 240 242 249 255 257 265 274 279 284 286 287 288 291 295 296 296 297 297 295 293 293 292 286 279 277 279 282 282 281 285 288 288 290 292 294 295 295 295 300 308 312 313 315 312 311 314 316 319 325 321 313 314 317 316 309 297
193 193 193 190 184 178 178 178 175 171 168 168 172 171 171 184 195 198 199 196 189 187 192 200 205 209 215 219 224 231 237 244 250 255 263 271 278 285 286 286 290 293 296 298 297 295 293 291 291 292 290 285 280 280 282 284 287 289 289 287 288 290 291 292 292 292 294 297 306 311 310 312 313 313 315 316 319 326 324 316 315 314 313 311 303
195 193 191 189 185 182 183 182 177 172 168 168 167 164 175 195 199 195 195 194 190 190 193 201 206 206 210 215 219 225 233 240 246 252 259 268 278 283 283 285 291 294 295 296 295 294 293 292 292 291 290 287 285 287 292 298 300 297 289 283 283 288 290 290 290 291 292 295 304 309 307 310 312 312 315 317 321 326 325 321 321 321 318 313 302
197 193 191 192 190 187 188 184 177 171 169 168 166 170 185 198 197 193 195 193 190 192 196 201 205 205 207 211 217 223 230 237 243 249 255 266 276 279 281 285 289 293 295 295 295 294 293 292 292 291 291 289 286 287 292 298 301 299 292 283 279 282 287 289 291 291 291 295 304 308 306 305 307 310 315 319 322 324 323 325 328 327 324 320 311
200 194 193 195 194 192 191 184 176 172 170 169 170 179 189 193 192 194 194 191 190 193 199 203 204 205 206 209 216 223 229 236 240 245 253 262 270 274 277 282 288 293 294 293 294 293 293 293 293 293 292 289 287 287 287 290 297 301 297 287 276 275 284 292 295 295 293 295 301 306 305 302 303 309 314 318 321 322 322 327 330 327 322 318 315
198 195 193 193 194 192 190 184 177 173 171 171 176 183 187 187 189 193 192 191 192 194 199 204 204 206 208 210 215 222 229 235 237 243 251 256 263 269 273 280 288 290 290 292 295 295 295 295 294 293 291 289 289 289 287 290 299 304 301 289 277 273 281 289 293 292 289 290 295 299 302 303 306 311 314 315 319 322 323 326 328 325 320 317 316
190 189 187 187 189 187 184 182 178 174 172 174 179 184 186 186 189 192 192 192 193 197 203 205 205 208 211 212 216 221 228 235 239 243 249 253 256 262 267 275 283 287 290 294 294 293 293 293 295 296 296 296 295 294 295 297 301 305 304 292 279 275 278 285 290 288 284 285 292 296 299 305 308 311 316 320 322 321 323 326 324 322 322 320 315
182 182 178 179 183 182 179 178 175 173 175 178 182 187 189 190 191 194 194 192 194 201 208 208 208 210 213 214 217 222 227 235 241 244 248 250 252 258 264 269 275 282 286 290 292 292 291 293 295 297 300 299 296 296 300 304 304 305 304 293 282 278 283 289 292 292 289 288 291 294 298 305 309 311 318 325 326 323 325 327 324 322 324 321 315
171 171 171 175 178 176 174 173 172 174 179 183 186 191 194 196 196 196 197 196 199 204 209 211 212 213 215 216 217 220 228 235 240 243 246 248 249 254 258 261 269 278 283 289 293 291 290 292 294 297 302 302 300 301 301 300 303 306 304 295 284 285 294 297 298 301 300 294 291 294 300 304 305 310 318 325 327 326 327 328 326 323 324 322 318
160 162 163 168 171 170 169 170 172 176 183 187 190 193 196 201 203 202 202 201 204 209 212 213 214 215 217 219 218 220 228 235 239 242 245 247 248 251 255 259 267 275 281 286 289 288 289 293 297 305 311 310 310 312 306 297 298 305 305 300 289 289 295 300 305 309 308 302 298 301 305 305 305 309 317 323 326 327 329 329 329 325 323 323 323
153 155 157 159 164 166 166 170 175 180 185 190 195 199 203 207 211 212 210 208 209 214 216 214 214 217 219 221 221 222 229 237 240 242 245 247 247 248 253 257 260 267 274 278 283 289 293 298 305 311 310 306 307 310 305 299 306 308 305 302 294 289 294 301 308 312 310 307 306 304 307 309 310 313 318 322 324 327 330 331 331 327 322 324 328
150 151 153 155 160 164 168 174 179 182 188 192 198 208 213 214 216 218 219 218 216 218 220 217 216 218 220 222 225 226 229 236 242 243 244 245 245 247 251 254 258 267 275 281 286 291 293 297 301 301 300 300 300 294 283 296 315 313 307 302 296 291 297 304 309 310 309 309 309 308 309 312 315 317 319 321 324 330 335 335 333 328 324 327 330
149 148 149 152 159 165 172 178 179 181 189 194 200 211 219 220 221 225 227 225 222 221 219 217 217 219 220 220 223 226 229 234 238 242 243 242 241 245 250 254 258 265 271 278 283 285 288 293 296 296 297 297 292 282 274 299 316 317 312 306 301 294 297 302 305 305 306 308 310 311 312 312 315 317 319 322 326 332 340 341 337 332 329 332 335
141 143 149 154 158 165 173 177 177 180 189 198 204 211 219 223 226 231 232 230 227 223 219 217 218 219 219 221 222 223 227 231 232 235 239 241 241 244 249 255 259 261 265 269 272 276 281 289 294 295 293 290 287 289 297 302 310 317 317 312 304 298 297 301 302 301 301 303 306 309 310 311 314 317 321 325 329 334 341 344 343 340 339 342 344
140 146 153 156 156 165 178 183 187 193 196 203 211 215 221 227 232 235 238 235 230 224 219 217 218 217 218 222 222 221 223 226 228 231 235 237 239 240 245 252 254 253 255 258 260 266 275 285 291 292 293 298 306 318 310 302 308 319 320 314 304 297 297 301 299 295 296 301 302 304 308 313 317 322 326 329 332 338 344 348 349 349 350 353 352
154 156 157 158 158 166 182 189 194 198 194 198 210 220 226 234 240 243 243 240 234 227 222 219 217 218 220 223 224 222 222 224 226 229 233 236 238 239 241 248 250 246 246 249 252 257 268 282 290 292 297 306 305 282 297 327 332 329 327 322 312 301 298 299 299 296 297 299 300 305 314 318 321 328 332 334 341 347 348 350 352 353 357 359 358
160 153 156 164 163 162 169 173 170 168 173 190 213 231 238 242 248 250 249 245 238 231 225 222 221 222 225 227 226 222 222 226 228 231 235 236 238 239 235 239 250 249 245 245 250 258 269 280 288 291 298 308 304 289 41 15 348 336 333 329 321 314 310 308 305 302 302 304 306 313 320 321 319 324 326 335 356 0 352 349 351 354 358 0 1
145 132 142 158 162 165 169 170 170 175 189 205 219 238 249 255 259 259 254 249 242 234 230 228 227 227 229 230 229 225 227 230 232 239 243 241 241 241 231 227 246 251 245 241 248 258 266 275 287 294 300 308 311 326 38 31 350 339 335 331 328 326 324 320 312 308 311 316 316 319 323 321 317 313 311 322 353 0 357 358 359 359 1 1 2
132 123 133 145 151 164 170 169 173 183 212 232 239 247 255 260 264 265 261 250 238 235 234 233 232 232 229 228 228 230 233 231 229 240 248 245 242 240 225 224 250 254 249 243 250 261 270 279 291 298 303 308 311 328 17 10 345 340 338 337 338 334 327 323 318 315 318 319 321 325 325 322 319 311 307 320 349 352 358 6 5 2 3 4 5
126 126 132 133 128 127 120 111 113 122 209 270 278 277 274 271 268 271 273 260 241 236 238 239 238 233 230 231 232 234 236 235 238 249 251 244 242 243 231 237 248 248 241 239 251 266 277 282 290 299 308 312 313 330 357 349 339 339 339 339 341 335 328 327 323 320 320 320 323 326 324 327 336 333 330 347 0 355 0 6 5 2 3 5 5
121 120 118 111 104 100 96 97 106 110 117 282 285 287 289 289 280 273 272 265 247 237 238 242 240 233 231 233 231 229 233 237 243 248 237 220 227 229 208 210 221 218 211 221 244 262 269 278 296 310 314 313 317 330 337 335 336 337 334 332 335 335 333 330 326 324 324 321 319 321 329 345 355 354 354 359 1 0 3 4 3 4 5 5 5
121 117 111 106 103 104 108 113 117 115 119 281 286 289 297 301 296 285 273 261 250 245 247 250 248 242 240 236 225 221 232 241 240 229 203 201 214 207 189 192 200 203 209 221 233 246 256 271 300 325 314 298 307 319 322 327 333 333 329 325 328 334 335 329 327 328 322 312 312 327 353 4 2 3 6 3 359 1 4 1 1 4 5 5 7
124 115 109 110 114 122 127 124 120 125 153 256 291 294 297 303 307 305 291 268 255 254 260 262 260 262 270 268 250 235 237 247 245 212 184 191 199 187 186 196 196 199 211 221 228 240 250 257 253 156 356 315 311 314 322 330 331 327 326 324 325 338 341 332 325 321 312 309 324 356 12 11 10 13 14 8 3 4 6 3 360 1 3 3 4